This demonstration page uses our WeatherBlox Daily Observations layout. Learn more.

Left ArrowRight Arrow

38.80484, -77.04692

Hourly Observations for August 31, 2019

Temp ( °F °C ) Dew Point ( °F °C ) Humidity (%) Winds ( mph kmh ) Pressure ( in mb ) Visibility ( mi km ) Precip ( " mm )
12:52 am 00:52 Partly Cloudy 75 23.9 62 16.7 64 64 S 5 7 30.12 1020 10 16 0.00 0.00
1:52 am 01:52 Mostly Cloudy 74 23.3 65 18.3 74 74 S 5 7 30.11 1020 10 16 0.00 0.00
2:52 am 02:52 Mostly Cloudy 73 22.8 65 18.3 76 76 SSW 6 9 30.11 1020 10 16 0.00 0.00
3:52 am 03:52 Mostly Cloudy 73 22.8 65 18.3 76 76 Calm 30.11 1020 10 16 0.00 0.00
4:52 am 04:52 Mostly Cloudy 72 22.2 63 17.2 73 73 SSW 5 7 30.12 1020 10 16 0.00 0.00
5:52 am 05:52 Mostly Cloudy 72 22.2 64 17.8 76 76 SW 3 6 30.14 1021 10 16 0.00 0.00
6:52 am 06:52 Mostly Cloudy 70 21.1 64 17.8 82 82 N 7 11 30.16 1022 10 16 0.00 0.00
7:52 am 07:52 Mostly Cloudy 74 23.3 65 18.3 74 74 N 3 6 30.18 1022 10 16 0.00 0.00
8:52 am 08:52 Mostly Cloudy 78 25.6 64 17.8 62 62 NNE 10 17 30.19 1022 10 16 0.00 0.00
9:52 am 09:52 Partly Cloudy 80 26.7 63 17.2 56 56 NE 13 20 30.20 1023 10 16 0.00 0.00
10:52 am 10:52 Partly Cloudy 83 28.3 62 16.7 49 49 N 8 13 30.21 1023 10 16 0.00 0.00
11:52 am 11:52 Partly Cloudy 86 30 62 16.7 45 45 NE 8 13 30.21 1023 10 16 0.00 0.00
12:52 pm 12:52 Partly Cloudy 87 30.6 61 16.1 42 42 NNE 8 13 30.20 1023 10 16 0.00 0.00
1:52 pm 13:52 Mostly Cloudy 88 31.1 62 16.7 42 42 VRB 5 7 30.20 1023 10 16 0.00 0.00
2:52 pm 14:52 Mostly Cloudy 89 31.7 62 16.7 41 41 Calm 30.19 1022 10 16 0.00 0.00
3:52 pm 15:52 Mostly Cloudy 90 32.2 63 17.2 41 41 NE 8 13 30.17 1022 10 16 0.00 0.00
4:52 pm 16:52 Mostly Cloudy 90 32.2 63 17.2 41 41 NE 8 13 30.17 1022 10 16 0.00 0.00
5:52 pm 17:52 Mostly Cloudy 88 31.1 64 17.8 45 45 E 12 19 30.17 1022 10 16 0.00 0.00
6:52 pm 18:52 Mostly Cloudy 85 29.4 66 18.9 53 53 E 9 15 30.18 1022 10 16 0.00 0.00
7:52 pm 19:52 Partly Cloudy 82 27.8 64 17.8 55 55 ENE 13 20 30.19 1022 10 16 0.00 0.00
8:52 pm 20:52 Partly Cloudy 81 27.2 64 17.8 57 57 NE 10 17 30.20 1023 10 16 0.00 0.00
9:52 pm 21:52 Mostly Cloudy 80 26.7 64 17.8 58 58 ENE 10 17 30.22 1023 10 16 0.00 0.00
10:52 pm 22:52 Mostly Cloudy 79 26.1 63 17.2 58 58 NE 12 19 30.24 1024 10 16 0.00 0.00
11:52 pm 23:52 Cloudy 78 25.6 62 16.7 58 58 NE 9 15 30.24 1024 10 16 0.00 0.00

Powered by AerisWeather